TimeEDT,TemperatureF,Dew PointF,Humidity,Sea Level PressureIn,VisibilityMPH,Wind Direction,Wind SpeedMPH,Gust SpeedMPH,PrecipitationIn,Events,Conditions,WindDirDegrees,DateUTC
12:52 AM,55.0,48.0,77,30.28,10.0,East,5.8,-,0.01,Rain,Light Rain,80,2012-10-09 04:52:00
1:52 AM,54.0,48.9,83,30.31,10.0,East,5.8,-,0.02,Rain,Light Rain,80,2012-10-09 05:52:00
2:52 AM,53.1,48.9,86,30.28,8.0,East,10.4,-,0.08,Rain,Light Rain,80,2012-10-09 06:52:00
3:52 AM,53.1,48.9,86,30.26,5.0,ENE,10.4,-,0.18,Rain,Rain,70,2012-10-09 07:52:00
4:21 AM,53.6,50.0,88,30.24,9.0,East,12.7,-,0.05,Rain,Light Rain,80,2012-10-09 08:21:00
4:35 AM,53.6,48.2,82,30.24,10.0,ENE,11.5,19.6,0.05,,Overcast,70,2012-10-09 08:35:00
4:52 AM,53.1,50.0,89,30.24,10.0,East,11.5,-,0.05,,Overcast,80,2012-10-09 08:52:00
4:59 AM,53.6,50.0,88,30.24,10.0,ENE,12.7,-,N/A,,Overcast,70,2012-10-09 08:59:00
5:52 AM,54.0,48.9,83,30.24,10.0,East,13.8,21.9,N/A,,Overcast,80,2012-10-09 09:52:00
7:16 AM,53.6,50.0,88,30.24,3.0,ENE,15.0,23.0,0.00,Rain,Light Rain,60,2012-10-09 11:16:00
7:25 AM,53.6,50.0,88,30.24,2.5,ENE,11.5,23.0,0.00,Rain,Light Rain,60,2012-10-09 11:25:00
7:32 AM,53.6,50.0,88,30.24,2.5,ENE,12.7,-,0.00,Rain,Light Rain,70,2012-10-09 11:32:00
7:47 AM,53.6,51.8,94,30.24,1.5,ENE,16.1,19.6,0.01,Rain,Light Rain,60,2012-10-09 11:47:00
7:48 AM,53.1,51.1,93,30.24,1.5,ENE,17.3,-,0.01,Rain,Light Rain,70,2012-10-09 11:48:00
7:59 AM,53.6,51.8,94,30.24,2.0,ENE,15.0,20.7,0.01,Rain,Light Rain,60,2012-10-09 11:59:00
8:12 AM,53.6,50.0,88,30.24,3.0,ENE,11.5,23.0,0.01,,Overcast,70,2012-10-09 12:12:00
8:31 AM,53.6,50.0,88,30.24,3.0,ENE,15.0,20.7,0.01,Rain,Light Rain,70,2012-10-09 12:31:00
8:52 AM,53.1,50.0,89,30.25,6.0,ENE,12.7,20.7,0.01,,Overcast,70,2012-10-09 12:52:00
8:58 AM,53.6,51.8,94,30.25,3.0,ENE,12.7,23.0,N/A,,Overcast,70,2012-10-09 12:58:00
9:04 AM,53.6,51.8,94,30.25,1.8,ENE,13.8,23.0,0.00,Rain,Light Rain,60,2012-10-09 13:04:00
9:12 AM,53.6,51.8,94,30.24,2.0,ENE,13.8,-,0.00,Rain,Light Rain,60,2012-10-09 13:12:00
9:27 AM,53.6,51.8,94,30.23,3.0,ENE,13.8,21.9,0.00,Rain,Light Rain,60,2012-10-09 13:27:00
9:34 AM,53.6,51.8,94,30.24,5.0,ENE,13.8,21.9,0.00,,Overcast,70,2012-10-09 13:34:00
9:52 AM,54.0,51.1,90,30.26,8.0,East,16.1,23.0,0.00,,Overcast,80,2012-10-09 13:52:00
9:59 AM,53.6,51.8,94,30.24,8.0,ENE,15.0,23.0,N/A,,Overcast,60,2012-10-09 13:59:00
10:06 AM,53.6,51.8,94,30.24,10.0,ENE,12.7,-,N/A,,Overcast,60,2012-10-09 14:06:00
10:52 AM,54.0,52.0,93,30.23,5.0,ENE,13.8,20.7,N/A,,Overcast,60,2012-10-09 14:52:00
11:21 AM,55.4,51.8,88,30.22,9.0,NE,10.4,-,N/A,,Overcast,50,2012-10-09 15:21:00
11:35 AM,53.6,51.8,94,30.22,2.5,NE,15.0,21.9,N/A,,Overcast,50,2012-10-09 15:35:00
11:52 AM,55.0,53.1,93,30.22,5.0,ENE,12.7,18.4,0.01,,Overcast,60,2012-10-09 15:52:00
12:24 PM,53.6,53.6,100,30.21,2.5,NE,11.5,20.7,N/A,,Overcast,50,2012-10-09 16:24:00
12:37 PM,55.4,53.6,94,30.20,4.0,NE,12.7,19.6,N/A,,Overcast,50,2012-10-09 16:37:00
12:52 PM,54.0,52.0,93,30.21,4.0,NE,13.8,20.7,N/A,,Overcast,50,2012-10-09 16:52:00
1:07 PM,55.4,51.8,88,30.19,9.0,NE,13.8,-,N/A,,Overcast,50,2012-10-09 17:07:00
1:52 PM,55.0,53.1,93,30.18,5.0,ENE,15.0,21.9,N/A,,Overcast,60,2012-10-09 17:52:00
2:01 PM,55.4,53.6,94,30.17,7.0,NE,15.0,23.0,N/A,,Overcast,50,2012-10-09 18:01:00
2:11 PM,55.4,53.6,94,30.17,9.0,ENE,13.8,21.9,N/A,,Overcast,60,2012-10-09 18:11:00
2:19 PM,55.4,51.8,88,30.17,10.0,NE,16.1,21.9,N/A,,Overcast,50,2012-10-09 18:19:00
2:52 PM,55.9,52.0,87,30.17,8.0,NE,16.1,20.7,N/A,,Overcast,50,2012-10-09 18:52:00
3:26 PM,55.4,53.6,94,30.16,4.0,NE,13.8,-,N/A,,Overcast,50,2012-10-09 19:26:00
3:52 PM,55.0,52.0,89,30.17,4.0,NE,12.7,20.7,N/A,,Overcast,50,2012-10-09 19:52:00
3:58 PM,55.4,51.8,88,30.16,9.0,NE,15.0,21.9,N/A,,Overcast,50,2012-10-09 19:58:00
4:12 PM,55.4,51.8,88,30.16,10.0,NE,15.0,21.9,N/A,,Overcast,50,2012-10-09 20:12:00
4:52 PM,54.0,51.1,90,30.16,9.0,NE,12.7,23.0,N/A,,Overcast,50,2012-10-09 20:52:00
5:05 PM,53.6,51.8,94,30.15,9.0,NE,15.0,25.3,N/A,,Overcast,50,2012-10-09 21:05:00
5:26 PM,55.4,51.8,88,30.15,10.0,NE,12.7,21.9,N/A,,Overcast,50,2012-10-09 21:26:00
5:52 PM,54.0,51.1,90,30.16,10.0,NE,13.8,21.9,N/A,,Overcast,50,2012-10-09 21:52:00
6:52 PM,55.0,51.1,86,30.15,10.0,NE,9.2,21.9,N/A,,Overcast,50,2012-10-09 22:52:00
7:33 PM,55.4,51.8,88,30.13,10.0,NE,15.0,23.0,N/A,,Overcast,50,2012-10-09 23:33:00
7:50 PM,55.4,51.8,88,30.13,10.0,NE,11.5,20.7,N/A,,Overcast,50,2012-10-09 23:50:00
7:52 PM,55.0,52.0,89,30.14,10.0,NE,12.7,20.7,N/A,,Overcast,40,2012-10-09 23:52:00
8:52 PM,55.9,52.0,87,30.14,10.0,NE,11.5,20.7,N/A,,Overcast,50,2012-10-10 00:52:00
9:52 PM,55.9,53.1,90,30.13,9.0,NE,10.4,18.4,N/A,,Overcast,50,2012-10-10 01:52:00
10:52 PM,55.9,54.0,93,30.12,4.0,NE,9.2,-,0.00,Rain,Light Rain,40,2012-10-10 02:52:00
11:31 PM,55.4,53.6,94,30.12,2.5,NE,10.4,-,0.00,Rain,Light Rain,40,2012-10-10 03:31:00
11:50 PM,55.4,53.6,94,30.12,3.0,NE,8.1,-,0.01,Rain,Light Rain,50,2012-10-10 03:50:00
11:51 PM,55.9,54.0,93,30.12,3.0,NE,8.1,-,0.01,Rain,Light Rain,50,2012-10-10 03:51:00